| time (UTC) | temp C | wind direction | speed KPH | gust KPH | rain 1hr cm | rain 24hr cm | rain mn cm | humidity % | barometer mb |
| 20260906133053 | 28 | 243 | 0.0 | 3.2 | 0.00 | 0.00 | 0.00 | 90 | 1011.1 |
| 20260906131551 | 27 | 223 | 1.6 | 3.2 | 0.00 | 0.00 | 0.00 | 91 | 1011.1 |
| 20260906130051 | 27 | 219 | 1.6 | 3.2 | 0.00 | 0.00 | 0.00 | 93 | 1011.3 |
| 20260906124550 | 26 | 227 | 0.0 | 4.8 | 0.00 | 0.00 | 0.00 | 94 | 1011.1 |
| 20260906123047 | 26 | 251 | 1.6 | 4.8 | 0.00 | 0.00 | 0.00 | 95 | 1010.9 |
| 20260906121547 | 26 | 219 | 0.0 | 3.2 | 0.00 | 0.00 | 0.00 | 96 | 1010.9 |
| 20260906120050 | 25 | 240 | 0.0 | 1.6 | 0.00 | 0.00 | 0.00 | 96 | 1011.1 |
| 20260906114549 | 25 | 240 | 0.0 | 0.0 | 0.00 | 0.00 | 0.00 | 96 | 1011.3 |
| 20260906113045 | 25 | 240 | 0.0 | 0.0 | 0.00 | 0.00 | 0.00 | 96 | 1011.2 |
| 20260906111548 | 25 | 240 | 0.0 | 0.0 | 0.00 | 0.00 | 0.00 | 96 | 1010.9 |
| 20260906110044 | 25 | 240 | 0.0 | 0.0 | 0.00 | 0.00 | 0.00 | 96 | 1010.6 |
| 20260906104543 | 25 | 240 | 0.0 | 0.0 | 0.00 | 0.00 | 0.00 | 96 | 1010.3 |
| 20260906103039 | 25 | 240 | 0.0 | 0.0 | 0.00 | 0.00 | 0.00 | 95 | 1010.0 |
| 20260906101538 | 25 | 240 | 0.0 | 1.6 | 0.00 | 0.00 | 0.00 | 95 | 1010.1 |
| 20260906100039 | 25 | 240 | 0.0 | 0.0 | 0.00 | 0.00 | 0.00 | 95 | 1010.2 |
| 20260906094601 | 25 | 240 | 0.0 | 1.6 | 0.00 | 0.00 | 0.00 | 95 | 1009.9 |
| 20260906093038 | 25 | 240 | 0.0 | 1.6 | 0.00 | 0.00 | 0.00 | 95 | 1009.8 |
| 20260906091541 | 25 | 240 | 0.0 | 3.2 | 0.00 | 0.00 | 0.00 | 95 | 1009.8 |
| 20260906090033 | 26 | 240 | 0.0 | 0.0 | 0.00 | 0.00 | 0.00 | 95 | 1009.8 |
| 20260906084537 | 26 | 240 | 0.0 | 0.0 | 0.00 | 0.00 | 0.00 | 95 | 1009.8 |
| 20260906083035 | 26 | 240 | 0.0 | 0.0 | 0.00 | 0.00 | 0.00 | 94 | 1009.7 |
| 20260906081544 | 26 | 240 | 0.0 | 0.0 | 0.00 | 0.00 | 0.00 | 94 | 1009.7 |
| 20260906080028 | 26 | 240 | 0.0 | 0.0 | 0.00 | 0.00 | 0.00 | 94 | 1009.8 |
| 20260906074531 | 26 | 240 | 0.0 | 1.6 | 0.00 | 0.00 | 0.00 | 94 | 1009.8 |
| 20260906073027 | 26 | 240 | 0.0 | 1.6 | 0.00 | 0.00 | 0.00 | 94 | 1009.9 |
| 20260906071526 | 26 | 239 | 0.0 | 3.2 | 0.00 | 0.00 | 0.00 | 94 | 1009.9 |
| 20260906070025 | 26 | 239 | 0.0 | 1.6 | 0.00 | 0.00 | 0.00 | 93 | 1010.0 |
| 20260906064524 | 26 | 240 | 0.0 | 1.6 | 0.00 | 0.00 | 0.00 | 93 | 1010.0 |
| 20260906063030 | 26 | 239 | 0.0 | 3.2 | 0.00 | 0.00 | 0.00 | 93 | 1010.0 |
| 20260906061532 | 26 | 212 | 0.0 | 3.2 | 0.00 | 0.00 | 0.00 | 93 | 1010.2 |
| 20260906060019 | 26 | 209 | 0.0 | 1.6 | 0.00 | 0.00 | 0.00 | 93 | 1010.3 |
| 20260906054519 | 27 | 209 | 0.0 | 1.6 | 0.00 | 0.00 | 0.00 | 93 | 1010.5 |
| 20260906053019 | 27 | 209 | 0.0 | 3.2 | 0.00 | 0.00 | 0.00 | 93 | 1010.5 |
| 20260906051514 | 27 | 208 | 0.0 | 3.2 | 0.00 | 0.00 | 0.00 | 93 | 1010.6 |
| 20260906050015 | 27 | 212 | 0.0 | 3.2 | 0.00 | 0.00 | 0.00 | 93 | 1010.6 |
| 20260906044512 | 27 | 212 | 0.0 | 1.6 | 0.00 | 0.00 | 0.00 | 94 | 1010.6 |
| 20260906043010 | 27 | 212 | 0.0 | 1.6 | 0.00 | 0.00 | 0.00 | 93 | 1010.5 |
| 20260906041509 | 27 | 212 | 0.0 | 3.2 | 0.00 | 0.00 | 0.00 | 93 | 1010.6 |
| 20260906040007 | 27 | 212 | 0.0 | 1.6 | 0.00 | 0.00 | 0.00 | 93 | 1010.8 |
| 20260906034503 | 27 | 198 | 0.0 | 3.2 | 0.00 | 0.00 | 0.00 | 93 | 1010.9 |
| 20260906033059 | 27 | 204 | 0.0 | 4.8 | 0.00 | 0.00 | 0.00 | 92 | 1011.1 |
| 20260906031601 | 27 | 192 | 0.0 | 1.6 | 0.00 | 0.00 | 0.00 | 92 | 1011.3 |
| 20260906030052 | 27 | 192 | 0.0 | 0.0 | 0.00 | 0.00 | 0.00 | 92 | 1011.3 |
| 20260906024545 | 27 | 192 | 0.0 | 1.6 | 0.00 | 0.00 | 0.00 | 91 | 1011.3 |
| 20260906023048 | 27 | 192 | 0.0 | 0.0 | 0.00 | 0.00 | 0.00 | 91 | 1011.3 |
| 20260906021537 | 27 | 192 | 0.0 | 3.2 | 0.00 | 0.00 | 0.00 | 90 | 1011.3 |
| 20260906020132 | 27 | 192 | 0.0 | 0.0 | 0.00 | 0.00 | 0.00 | 91 | 1011.1 |
| 20260906014533 | 27 | 192 | 0.0 | 0.0 | 0.00 | 0.00 | 0.00 | 89 | 1010.9 |
| 20260906013023 | 27 | 192 | 0.0 | 0.0 | 0.00 | 0.00 | 0.00 | 89 | 1010.7 |
| 20260906011519 | 27 | 192 | 0.0 | 1.6 | 0.00 | 0.00 | 0.00 | 89 | 1010.5 |
| 20260906010014 | 28 | 192 | 0.0 | 1.6 | 0.00 | 0.00 | 0.00 | 88 | 1010.2 |
| 20260906004510 | 28 | 192 | 0.0 | 1.6 | 0.00 | 0.00 | 0.00 | 88 | 1010.1 |
| 20260906003008 | 28 | 192 | 0.0 | 0.0 | 0.00 | 0.00 | 0.00 | 86 | 1009.9 |
| 20260906001502 | 29 | 192 | 0.0 | 0.0 | 0.00 | 0.00 | 0.00 | 85 | 1009.8 |
| 20260906000057 | 29 | 192 | 0.0 | 1.6 | 0.00 | 0.00 | 0.00 | 84 | 1009.6 |
| 20260905234553 | 30 | 193 | 0.0 | 3.2 | 0.00 | 0.03 | 0.00 | 83 | 1009.6 |
| 20260905233052 | 30 | 217 | 0.0 | 1.6 | 0.00 | 0.03 | 0.00 | 83 | 1009.8 |
| 20260905231544 | 30 | 216 | 0.0 | 3.2 | 0.00 | 0.03 | 0.00 | 82 | 1009.6 |
| 20260905230039 | 31 | 210 | 0.0 | 4.8 | 0.00 | 0.03 | 0.00 | 83 | 1009.7 |
| 20260905224535 | 31 | 122 | 0.0 | 3.2 | 0.00 | 0.03 | 0.00 | 82 | 1010.0 |
| 20260905223037 | 31 | 196 | 0.0 | 4.8 | 0.00 | 0.03 | 0.00 | 82 | 1010.1 |
| 20260905221538 | 32 | 214 | 0.0 | 4.8 | 0.00 | 0.03 | 0.00 | 80 | 1010.2 |
| 20260905220022 | 32 | 199 | 0.0 | 1.6 | 0.00 | 0.03 | 0.00 | 78 | 1010.2 |
| 20260905214517 | 32 | 199 | 0.0 | 1.6 | 0.00 | 0.03 | 0.00 | 75 | 1010.3 |
| 20260905213013 | 32 | 199 | 0.0 | 1.6 | 0.00 | 0.03 | 0.00 | 73 | 1010.4 |
| 20260905211524 | 32 | 217 | 1.6 | 3.2 | 0.00 | 0.03 | 0.00 | 72 | 1010.4 |
| 20260905210005 | 32 | 214 | 0.0 | 3.2 | 0.00 | 0.03 | 0.00 | 74 | 1010.4 |
| 20260905204604 | 33 | 251 | 1.6 | 4.8 | 0.00 | 0.03 | 0.00 | 71 | 1010.3 |
| 20260905203058 | 33 | 257 | 1.6 | 6.4 | 0.00 | 0.03 | 0.00 | 72 | 1010.2 |
| 20260905201600 | 33 | 215 | 1.6 | 9.7 | 0.00 | 0.03 | 0.00 | 72 | 1010.1 |
| 20260905200059 | 33 | 252 | 1.6 | 4.8 | 0.00 | 0.03 | 0.00 | 72 | 1010.1 |
| 20260905194543 | 33 | 254 | 0.0 | 6.4 | 0.00 | 0.03 | 0.00 | 73 | 1010.3 |
| 20260905193039 | 32 | 247 | 0.0 | 6.4 | 0.00 | 0.03 | 0.00 | 73 | 1010.5 |
| 20260905191540 | 33 | 280 | 1.6 | 8.0 | 0.00 | 0.03 | 0.00 | 72 | 1010.9 |
| 20260905190030 | 32 | 251 | 1.6 | 4.8 | 0.00 | 0.03 | 0.00 | 72 | 1010.7 |
| 20260905184532 | 32 | 223 | 1.6 | 4.8 | 0.00 | 0.03 | 0.00 | 72 | 1011.0 |
| 20260905183022 | 32 | 250 | 1.6 | 4.8 | 0.00 | 0.03 | 0.00 | 73 | 1011.2 |
| 20260905181519 | 32 | 253 | 1.6 | 8.0 | 0.00 | 0.03 | 0.00 | 74 | 1011.4 |
| 20260905180015 | 31 | 42 | 1.6 | 4.8 | 0.00 | 0.03 | 0.00 | 77 | 1011.5 |
| 20260905174512 | 31 | 260 | 1.6 | 6.4 | 0.00 | 0.03 | 0.00 | 77 | 1011.7 |
| 20260905173010 | 31 | 286 | 1.6 | 4.8 | 0.00 | 0.03 | 0.00 | 81 | 1012.0 |
| 20260905171521 | 31 | 249 | 3.2 | 9.7 | 0.00 | 0.03 | 0.00 | 81 | 1012.0 |
| 20260905170004 | 31 | 275 | 1.6 | 6.4 | 0.00 | 0.03 | 0.00 | 81 | 1012.6 |
| 20260905164501 | 30 | 58 | 0.0 | 4.8 | 0.00 | 0.13 | 0.00 | 83 | 1012.8 |
| 20260905163101 | 30 | 71 | 1.6 | 4.8 | 0.00 | 0.13 | 0.00 | 86 | 1013.1 |
| 20260905161554 | 29 | 291 | 1.6 | 4.8 | 0.00 | 0.13 | 0.00 | 86 | 1013.4 |
| 20260905160053 | 28 | 220 | 3.2 | 9.7 | 0.00 | 0.13 | 0.00 | 88 | 1013.7 |
| 20260905154553 | 28 | 253 | 1.6 | 4.8 | 0.00 | 0.13 | 0.00 | 90 | 1013.9 |
| 20260905153044 | 28 | 245 | 0.0 | 4.8 | 0.00 | 0.13 | 0.00 | 92 | 1014.0 |
| 20260905151543 | 27 | 223 | 1.6 | 4.8 | 0.00 | 0.13 | 0.00 | 92 | 1014.0 |
| 20260905150040 | 27 | 241 | 0.0 | 3.2 | 0.00 | 0.13 | 0.00 | 93 | 1014.0 |
| 20260905144549 | 27 | 257 | 0.0 | 4.8 | 0.00 | 0.99 | 0.00 | 93 | 1013.9 |
| 20260905143036 | 27 | 213 | 1.6 | 4.8 | 0.00 | 0.99 | 0.00 | 95 | 1013.9 |
| 20260905141534 | 27 | 243 | 0.0 | 3.2 | 0.00 | 0.99 | 0.00 | 97 | 1013.9 |
| 20260905140035 | 26 | 229 | 0.0 | 4.8 | 0.00 | 0.99 | 0.00 | 98 | 1013.9 |
| 20260905134528 | 26 | 220 | 1.6 | 4.8 | 0.00 | 0.99 | 0.00 | 98 | 1013.8 |